This is the latest recevied weather packets stored in our database for station/object IR3AS. If no packets are shown the sender has not sent any weather packets the latest 10 day(s).
| Time | Temp. | Humidity | Pressure | Rain* | Wind** | Luminosity | Snow |
|---|---|---|---|---|---|---|---|
| 1777834255 | 6.11° C | 71% | 860.8 hPa | 0 mm | - | - | - |
| 1777833955 | 6.11° C | 70% | 860.3 hPa | 0 mm | - | - | - |
| 1777833655 | 6.11° C | 69% | 860.4 hPa | 0 mm | - | - | - |
| 1777833355 | 6.11° C | 70% | 860.6 hPa | 0 mm | - | - | - |
| 1777833055 | 6.11° C | 69% | 860.5 hPa | 0 mm | - | - | - |
| 1777832756 | 6.11° C | 69% | 860.4 hPa | 0 mm | - | - | - |
| 1777832456 | 6.11° C | 69% | 860.5 hPa | 0 mm | - | - | - |
| 1777832155 | 6.11° C | 69% | 861 hPa | 0 mm | - | - | - |
| 1777831855 | 6.11° C | 69% | 861.2 hPa | 0 mm | - | - | - |
| 1777831556 | 6.11° C | 69% | 861.2 hPa | 0 mm | - | - | - |
| 1777831256 | 6.67° C | 68% | 861.1 hPa | 0 mm | - | - | - |
| 1777830955 | 6.67° C | 66% | 860.9 hPa | 0 mm | - | - | - |
| 1777830655 | 7.22° C | 64% | 860.2 hPa | 0 mm | - | - | - |
| 1777830356 | 7.22° C | 62% | 860.5 hPa | 0 mm | - | - | - |
| 1777830056 | 7.78° C | 61% | 860.5 hPa | 0 mm | - | - | - |
| 1777829756 | 7.78° C | 60% | 860.6 hPa | 0 mm | - | - | - |
| 1777829456 | 8.33° C | 59% | 860.6 hPa | 0 mm | - | - | - |
| 1777829155 | 8.33° C | 58% | 860.5 hPa | 0 mm | - | - | - |
| 1777828856 | 8.33° C | 58% | 860.9 hPa | 0 mm | - | - | - |
| 1777828556 | 8.33° C | 57% | 861 hPa | 0 mm | - | - | - |
| 1777828256 | 8.89° C | 56% | 861 hPa | 0 mm | - | - | - |
| 1777827956 | 8.89° C | 55% | 861 hPa | 0 mm | - | - | - |
| 1777827656 | 9.44° C | 53% | 861.1 hPa | 0 mm | - | - | - |
| 1777827356 | 10.56° C | 51% | 861.2 hPa | 0 mm | - | - | - |
| 1777827056 | 11.67° C | 49% | 861.4 hPa | 0 mm | - | - | - |
* Rain latest hour (hover to see other rain measurements)
** Current wind speed in m/s (hover to see current wind gust speed)